Location: Bayshore Village Mobile Home Park
(26.6945°N, 81.8642°W)
Time: 21:28:57
(UTC+00:00)

CZ-4C R/B - Pass Details

Date: 17 June 2021
Orbit: 606 x 1396 km, 63.4° (Epoch: 31 July)

Event Time Altitude Azimuth Distance (km) Brightness Sun altitude
Exits shadow 08:19:28 51° 131° (SE) 823 2.1 -25.1°
Maximum altitude 08:19:49 52° 114° (ESE) 815 2.2 -25.0°
Drops below altitude 10° 08:24:40 10° 38° (NE) 2,240 5.5 -24.3°
Sets 08:27:17 0° 34° (NNE) 3,278 6.6 -23.9°
